| time (UTC) | temp F | wind direction | speed MPH | gust MPH | rain 1hr in | rain 24hr in | rain mn in | humidity % | barometer mb |
| 20260904144054 | 80 | 352 | 0.0 | 4.0 | 0.00 | 0.15 | 0.15 | 83 | 1013.6 |
| 20260904143554 | 80 | 324 | 1.0 | 4.0 | 0.00 | 0.15 | 0.15 | 84 | 1013.5 |
| 20260904143122 | 79 | 8 | 1.0 | 3.0 | 0.00 | 0.15 | 0.15 | 84 | 1013.6 |
| 20260904142554 | 79 | 300 | 1.0 | 2.0 | 0.00 | 0.15 | 0.15 | 85 | 1013.4 |
| 20260904142055 | 79 | 319 | 1.0 | 3.0 | 0.00 | 0.15 | 0.15 | 85 | 1013.4 |
| 20260904141606 | 78 | 300 | 1.0 | 4.0 | 0.00 | 0.15 | 0.15 | 86 | 1013.5 |
| 20260904141053 | 78 | 299 | 0.0 | 9.0 | 0.00 | 0.15 | 0.15 | 87 | 1013.5 |
| 20260904140557 | 78 | 322 | 1.0 | 9.0 | 0.00 | 0.15 | 0.15 | 87 | 1013.5 |
| 20260904140107 | 77 | 42 | 1.0 | 7.0 | 0.00 | 0.15 | 0.15 | 87 | 1013.5 |
| 20260904135554 | 77 | 341 | 1.0 | 7.0 | 0.00 | 0.15 | 0.15 | 88 | 1013.4 |
| 20260904135054 | 77 | 70 | 1.0 | 7.0 | 0.00 | 0.15 | 0.15 | 89 | 1013.4 |
| 20260904134604 | 77 | 328 | 2.0 | 7.0 | 0.00 | 0.15 | 0.15 | 89 | 1013.4 |
| 20260904134054 | 76 | 39 | 1.0 | 6.0 | 0.00 | 0.15 | 0.15 | 90 | 1013.5 |
| 20260904133554 | 76 | 52 | 1.0 | 6.0 | 0.00 | 0.15 | 0.15 | 91 | 1013.3 |
| 20260904133112 | 76 | 0 | 1.0 | 4.0 | 0.00 | 0.15 | 0.15 | 91 | 1013.3 |
| 20260904132555 | 75 | 321 | 1.0 | 3.0 | 0.00 | 0.15 | 0.15 | 91 | 1013.3 |
| 20260904132054 | 75 | 316 | 1.0 | 3.0 | 0.00 | 0.15 | 0.15 | 93 | 1013.4 |
| 20260904131605 | 75 | 329 | 0.0 | 4.0 | 0.00 | 0.15 | 0.15 | 93 | 1013.4 |
| 20260904131059 | 75 | 322 | 1.0 | 5.0 | 0.00 | 0.15 | 0.15 | 94 | 1013.3 |
| 20260904130553 | 74 | 321 | 1.0 | 5.0 | 0.00 | 0.15 | 0.15 | 94 | 1013.3 |
| 20260904130109 | 74 | 4 | 1.0 | 5.0 | 0.00 | 0.15 | 0.15 | 95 | 1013.3 |
| 20260904125555 | 74 | 311 | 1.0 | 4.0 | 0.00 | 0.15 | 0.15 | 96 | 1013.4 |
| 20260904125059 | 73 | 260 | 0.0 | 4.0 | 0.00 | 0.15 | 0.15 | 96 | 1013.4 |
| 20260904124606 | 73 | 255 | 1.0 | 4.0 | 0.00 | 0.15 | 0.15 | 97 | 1013.3 |
| 20260904124059 | 73 | 0 | 1.0 | 4.0 | 0.00 | 0.15 | 0.15 | 97 | 1013.3 |
| 20260904123551 | 73 | 320 | 0.0 | 4.0 | 0.00 | 0.15 | 0.15 | 97 | 1013.4 |
| 20260904123106 | 73 | 0 | 1.0 | 4.0 | 0.00 | 0.15 | 0.15 | 98 | 1013.3 |
| 20260904122552 | 73 | 321 | 1.0 | 4.0 | 0.00 | 0.15 | 0.15 | 98 | 1013.4 |
| 20260904122057 | 73 | 305 | 0.0 | 2.0 | 0.00 | 0.15 | 0.15 | 98 | 1013.5 |
| 20260904121607 | 73 | 309 | 0.0 | 2.0 | 0.00 | 0.15 | 0.15 | 98 | 1013.4 |
| 20260904121053 | 72 | 236 | 0.0 | 1.0 | 0.00 | 0.15 | 0.15 | 98 | 1013.4 |
| 20260904120556 | 72 | 0 | 0.0 | 1.0 | 0.00 | 0.15 | 0.15 | 98 | 1013.3 |
| 20260904120107 | 72 | 0 | 0.0 | 1.0 | 0.00 | 0.15 | 0.15 | 98 | 1013.2 |
| 20260904115553 | 72 | 0 | 0.0 | 1.0 | 0.00 | 0.15 | 0.15 | 98 | 1013.3 |
| 20260904115053 | 72 | 0 | 0.0 | 1.0 | 0.00 | 0.15 | 0.15 | 98 | 1013.4 |
| 20260904114609 | 72 | 0 | 0.0 | 1.0 | 0.00 | 0.15 | 0.15 | 98 | 1013.3 |
| 20260904114053 | 72 | 0 | 0.0 | 0.0 | 0.00 | 0.15 | 0.15 | 98 | 1013.2 |
| 20260904113553 | 72 | 0 | 0.0 | 0.0 | 0.00 | 0.15 | 0.15 | 98 | 1013.3 |
| 20260904113109 | 72 | 0 | 0.0 | 1.0 | 0.00 | 0.15 | 0.15 | 98 | 1013.1 |
| 20260904112551 | 72 | 0 | 0.0 | 1.0 | 0.00 | 0.15 | 0.15 | 98 | 1012.9 |
| 20260904112051 | 72 | 248 | 0.0 | 1.0 | 0.00 | 0.15 | 0.15 | 98 | 1012.8 |
| 20260904111610 | 72 | 0 | 0.0 | 1.0 | 0.00 | 0.15 | 0.15 | 98 | 1013.0 |
| 20260904111054 | 72 | 0 | 0.0 | 2.0 | 0.00 | 0.15 | 0.15 | 98 | 1013.3 |
| 20260904110555 | 72 | 0 | 0.0 | 2.0 | 0.00 | 0.15 | 0.15 | 98 | 1013.4 |
| 20260904110117 | 72 | 0 | 0.0 | 2.0 | 0.00 | 0.15 | 0.15 | 98 | 1013.6 |
| 20260904105554 | 72 | 315 | 0.0 | 3.0 | 0.00 | 0.15 | 0.15 | 98 | 1013.4 |
| 20260904105053 | 72 | 315 | 1.0 | 3.0 | 0.00 | 0.15 | 0.15 | 98 | 1013.3 |
| 20260904104600 | 72 | 300 | 0.0 | 1.0 | 0.00 | 0.15 | 0.15 | 98 | 1013.3 |
| 20260904104051 | 72 | 0 | 0.0 | 1.0 | 0.00 | 0.15 | 0.15 | 98 | 1013.1 |
| 20260904103554 | 72 | 0 | 0.0 | 0.0 | 0.00 | 0.15 | 0.15 | 97 | 1012.8 |
| 20260904103105 | 72 | 0 | 0.0 | 0.0 | 0.00 | 0.15 | 0.15 | 97 | 1012.7 |
| 20260904102555 | 72 | 0 | 0.0 | 0.0 | 0.00 | 0.15 | 0.15 | 97 | 1012.5 |
| 20260904102054 | 72 | 0 | 0.0 | 0.0 | 0.00 | 0.15 | 0.15 | 97 | 1012.5 |
| 20260904101607 | 72 | 0 | 0.0 | 0.0 | 0.00 | 0.15 | 0.15 | 97 | 1012.5 |
| 20260904101056 | 72 | 0 | 0.0 | 0.0 | 0.00 | 0.15 | 0.15 | 97 | 1012.3 |
| 20260904100553 | 72 | 0 | 0.0 | 1.0 | 0.00 | 0.15 | 0.15 | 97 | 1012.3 |
| 20260904100107 | 72 | 0 | 0.0 | 1.0 | 0.00 | 0.15 | 0.15 | 97 | 1012.4 |
| 20260904095554 | 72 | 289 | 0.0 | 1.0 | 0.00 | 0.22 | 0.15 | 97 | 1012.5 |
| 20260904095054 | 72 | 0 | 0.0 | 1.0 | 0.00 | 0.22 | 0.15 | 97 | 1012.3 |
| 20260904094607 | 72 | 289 | 0.0 | 0.0 | 0.00 | 0.22 | 0.15 | 97 | 1012.2 |
| 20260904094054 | 72 | 0 | 0.0 | 1.0 | 0.00 | 0.22 | 0.15 | 97 | 1012.3 |
| 20260904093554 | 72 | 0 | 0.0 | 1.0 | 0.00 | 0.22 | 0.15 | 97 | 1012.4 |
| 20260904093107 | 72 | 289 | 0.0 | 1.0 | 0.00 | 0.22 | 0.15 | 97 | 1012.7 |
| 20260904092554 | 72 | 0 | 0.0 | 1.0 | 0.00 | 0.22 | 0.15 | 97 | 1012.8 |
| 20260904092057 | 72 | 0 | 0.0 | 1.0 | 0.00 | 0.22 | 0.15 | 97 | 1012.7 |
| 20260904091605 | 72 | 0 | 0.0 | 1.0 | 0.00 | 0.22 | 0.15 | 97 | 1012.7 |
| 20260904091054 | 72 | 289 | 0.0 | 1.0 | 0.00 | 0.22 | 0.15 | 97 | 1012.8 |
| 20260904090553 | 72 | 289 | 1.0 | 1.0 | 0.00 | 0.22 | 0.15 | 97 | 1012.7 |
| 20260904090059 | 72 | 0 | 0.0 | 1.0 | 0.00 | 0.22 | 0.15 | 97 | 1012.6 |
| 20260904085550 | 72 | 0 | 0.0 | 0.0 | 0.00 | 0.22 | 0.15 | 97 | 1012.6 |
| 20260904085050 | 72 | 0 | 0.0 | 0.0 | 0.00 | 0.22 | 0.15 | 97 | 1012.5 |
| 20260904084605 | 72 | 0 | 0.0 | 0.0 | 0.00 | 0.22 | 0.15 | 97 | 1012.8 |
| 20260904084055 | 72 | 0 | 0.0 | 0.0 | 0.00 | 0.22 | 0.15 | 97 | 1012.7 |
| 20260904083555 | 72 | 0 | 0.0 | 0.0 | 0.00 | 0.22 | 0.15 | 97 | 1012.7 |
| 20260904083104 | 72 | 0 | 0.0 | 0.0 | 0.00 | 0.22 | 0.15 | 97 | 1012.7 |
| 20260904082554 | 72 | 0 | 0.0 | 0.0 | 0.00 | 0.22 | 0.15 | 97 | 1012.8 |
| 20260904082054 | 72 | 0 | 0.0 | 0.0 | 0.00 | 0.22 | 0.15 | 97 | 1012.8 |
| 20260904081606 | 73 | 0 | 0.0 | 0.0 | 0.00 | 0.22 | 0.15 | 97 | 1012.9 |
| 20260904081053 | 73 | 0 | 0.0 | 1.0 | 0.00 | 0.22 | 0.15 | 97 | 1013.0 |
| 20260904080557 | 73 | 0 | 0.0 | 1.0 | 0.00 | 0.22 | 0.15 | 97 | 1012.8 |
| 20260904080120 | 73 | 247 | 0.0 | 1.0 | 0.00 | 0.22 | 0.15 | 97 | 1012.9 |
| 20260904075557 | 73 | 0 | 0.0 | 1.0 | 0.00 | 0.23 | 0.15 | 97 | 1013.1 |
| 20260904075051 | 73 | 248 | 0.0 | 1.0 | 0.00 | 0.23 | 0.15 | 97 | 1013.0 |
| 20260904074606 | 73 | 0 | 0.0 | 1.0 | 0.01 | 0.23 | 0.15 | 97 | 1013.1 |
| 20260904074055 | 73 | 0 | 0.0 | 1.0 | 0.01 | 0.23 | 0.15 | 97 | 1013.2 |
| 20260904073554 | 73 | 0 | 0.0 | 0.0 | 0.01 | 0.23 | 0.15 | 97 | 1013.2 |
| 20260904073111 | 73 | 205 | 0.0 | 0.0 | 0.02 | 0.23 | 0.15 | 97 | 1013.4 |
| 20260904072553 | 73 | 0 | 0.0 | 0.0 | 0.02 | 0.23 | 0.15 | 97 | 1013.3 |
| 20260904072057 | 73 | 205 | 0.0 | 0.0 | 0.04 | 0.23 | 0.15 | 96 | 1013.2 |
| 20260904071603 | 73 | 205 | 0.0 | 0.0 | 0.06 | 0.23 | 0.15 | 96 | 1013.3 |
| 20260904071050 | 73 | 0 | 0.0 | 0.0 | 0.08 | 0.23 | 0.15 | 96 | 1013.2 |
| 20260904070554 | 73 | 0 | 0.0 | 0.0 | 0.10 | 0.23 | 0.15 | 96 | 1013.3 |
| 20260904065553 | 73 | 0 | 0.0 | 0.0 | 0.13 | 0.23 | 0.15 | 96 | 1013.6 |
| 20260904065053 | 73 | 0 | 0.0 | 0.0 | 0.14 | 0.23 | 0.15 | 96 | 1013.6 |
| 20260904064611 | 74 | 0 | 0.0 | 1.0 | 0.14 | 0.22 | 0.14 | 96 | 1013.6 |
| 20260904064054 | 74 | 0 | 0.0 | 1.0 | 0.14 | 0.22 | 0.14 | 96 | 1013.3 |
| 20260904063558 | 74 | 204 | 0.0 | 1.0 | 0.14 | 0.22 | 0.14 | 96 | 1013.1 |
| 20260904063115 | 74 | 0 | 0.0 | 2.0 | 0.13 | 0.21 | 0.13 | 96 | 1013.1 |
| 20260904062553 | 74 | 0 | 0.0 | 2.0 | 0.13 | 0.21 | 0.13 | 95 | 1013.0 |
| 20260904062053 | 74 | 0 | 0.0 | 2.0 | 0.11 | 0.19 | 0.11 | 95 | 1012.7 |
| 20260904061558 | 75 | 0 | 0.0 | 2.0 | 0.09 | 0.17 | 0.09 | 95 | 1012.5 |
| 20260904061056 | 75 | 0 | 0.0 | 1.0 | 0.07 | 0.15 | 0.07 | 94 | 1012.7 |
| 20260904060552 | 75 | 166 | 0.0 | 1.0 | 0.05 | 0.13 | 0.05 | 94 | 1012.7 |
| 20260904060110 | 76 | 0 | 0.0 | 1.0 | 0.04 | 0.12 | 0.04 | 94 | 1012.7 |
| 20260904055550 | 76 | 0 | 0.0 | 2.0 | 0.02 | 0.10 | 0.02 | 93 | 1012.5 |
| 20260904055054 | 77 | 169 | 0.0 | 2.0 | 0.01 | 0.09 | 0.01 | 93 | 1012.9 |
| 20260904054604 | 77 | 240 | 0.0 | 2.0 | 0.00 | 0.08 | 0.00 | 93 | 1013.1 |
| 20260904054052 | 77 | 325 | 1.0 | 2.0 | 0.00 | 0.08 | 0.00 | 94 | 1013.3 |
| 20260904053553 | 77 | 0 | 0.0 | 1.0 | 0.00 | 0.08 | 0.00 | 94 | 1013.5 |
| 20260904053132 | 77 | 0 | 1.0 | 1.0 | 0.00 | 0.08 | 0.00 | 94 | 1013.4 |
| 20260904052555 | 77 | 0 | 0.0 | 1.0 | 0.00 | 0.08 | 0.00 | 95 | 1013.5 |
| 20260904052055 | 77 | 291 | 0.0 | 2.0 | 0.00 | 0.08 | 0.00 | 95 | 1013.3 |
| 20260904051608 | 77 | 0 | 1.0 | 2.0 | 0.00 | 0.08 | 0.00 | 96 | 1012.8 |
| 20260904051054 | 77 | 0 | 0.0 | 1.0 | 0.00 | 0.08 | 0.00 | 97 | 1012.8 |
| 20260904050550 | 77 | 241 | 0.0 | 5.0 | 0.00 | 0.08 | 0.00 | 97 | 1013.2 |
| 20260904050108 | 77 | 0 | 0.0 | 5.0 | 0.00 | 0.08 | 0.00 | 97 | 1013.4 |
| 20260904045553 | 77 | 335 | 1.0 | 2.0 | 0.00 | 0.08 | 0.00 | 97 | 1013.3 |
| 20260904045050 | 76 | 319 | 0.0 | 2.0 | 0.00 | 0.08 | 0.00 | 97 | 1012.9 |
| 20260904044615 | 76 | 0 | 0.0 | 0.0 | 0.00 | 0.08 | 0.00 | 96 | 1012.9 |
| 20260904044052 | 76 | 0 | 0.0 | 0.0 | 0.00 | 0.08 | 0.00 | 96 | 1012.7 |
| 20260904043550 | 76 | 0 | 0.0 | 0.0 | 0.00 | 0.08 | 0.00 | 96 | 1012.7 |
| 20260904043103 | 76 | 0 | 0.0 | 0.0 | 0.00 | 0.08 | 0.00 | 96 | 1012.4 |
| 20260904042554 | 76 | 0 | 0.0 | 0.0 | 0.00 | 0.08 | 0.00 | 96 | 1012.3 |
| 20260904042054 | 76 | 0 | 0.0 | 0.0 | 0.00 | 0.08 | 0.00 | 96 | 1012.3 |
| 20260904041606 | 76 | 0 | 0.0 | 0.0 | 0.00 | 0.08 | 0.00 | 96 | 1012.2 |
| 20260904041050 | 76 | 0 | 0.0 | 0.0 | 0.00 | 0.08 | 0.00 | 96 | 1012.2 |
| 20260904040550 | 76 | 0 | 0.0 | 0.0 | 0.00 | 0.08 | 0.00 | 96 | 1012.4 |
| 20260904040110 | 76 | 0 | 0.0 | 0.0 | 0.00 | 0.08 | 0.00 | 96 | 1012.5 |
| 20260904035554 | 76 | 0 | 0.0 | 1.0 | 0.00 | 0.08 | 0.08 | 96 | 1012.8 |
| 20260904035053 | 76 | 0 | 0.0 | 1.0 | 0.00 | 0.08 | 0.08 | 96 | 1012.9 |
| 20260904034605 | 76 | 319 | 0.0 | 0.0 | 0.00 | 0.08 | 0.08 | 96 | 1012.9 |
| 20260904034054 | 76 | 0 | 0.0 | 0.0 | 0.00 | 0.08 | 0.08 | 96 | 1013.4 |
| 20260904033555 | 76 | 0 | 0.0 | 0.0 | 0.00 | 0.08 | 0.08 | 96 | 1013.4 |
| 20260904033100 | 76 | 0 | 0.0 | 0.0 | 0.00 | 0.08 | 0.08 | 96 | 1013.5 |
| 20260904032553 | 76 | 0 | 0.0 | 0.0 | 0.00 | 0.08 | 0.08 | 96 | 1013.4 |
| 20260904032056 | 76 | 0 | 0.0 | 0.0 | 0.00 | 0.08 | 0.08 | 96 | 1013.4 |
| 20260904031558 | 76 | 0 | 0.0 | 0.0 | 0.00 | 0.08 | 0.08 | 96 | 1013.3 |
| 20260904031050 | 76 | 0 | 0.0 | 0.0 | 0.00 | 0.08 | 0.08 | 96 | 1013.5 |
| 20260904030557 | 76 | 0 | 0.0 | 0.0 | 0.00 | 0.08 | 0.08 | 96 | 1013.6 |
| 20260904030106 | 76 | 0 | 0.0 | 0.0 | 0.00 | 0.08 | 0.08 | 96 | 1013.6 |
| 20260904025552 | 76 | 0 | 0.0 | 0.0 | 0.00 | 0.08 | 0.08 | 95 | 1013.6 |
| 20260904025053 | 77 | 0 | 0.0 | 0.0 | 0.00 | 0.08 | 0.08 | 95 | 1013.4 |
| 20260904024604 | 77 | 0 | 0.0 | 0.0 | 0.00 | 0.08 | 0.08 | 95 | 1013.4 |
| 20260904024053 | 77 | 0 | 0.0 | 0.0 | 0.00 | 0.08 | 0.08 | 95 | 1013.4 |
| 20260904023552 | 77 | 0 | 0.0 | 0.0 | 0.00 | 0.08 | 0.08 | 95 | 1013.4 |
| 20260904023128 | 77 | 0 | 0.0 | 0.0 | 0.00 | 0.08 | 0.08 | 95 | 1013.5 |
| 20260904022553 | 77 | 0 | 0.0 | 0.0 | 0.00 | 0.08 | 0.08 | 95 | 1013.5 |
| 20260904022051 | 77 | 0 | 0.0 | 0.0 | 0.00 | 0.08 | 0.08 | 95 | 1013.5 |
| 20260904021616 | 77 | 0 | 0.0 | 0.0 | 0.00 | 0.08 | 0.08 | 95 | 1013.3 |
| 20260904021053 | 77 | 0 | 0.0 | 0.0 | 0.00 | 0.08 | 0.08 | 95 | 1013.2 |
| 20260904020553 | 77 | 0 | 0.0 | 0.0 | 0.00 | 0.08 | 0.08 | 95 | 1013.3 |
| 20260904020106 | 77 | 0 | 0.0 | 0.0 | 0.00 | 0.08 | 0.08 | 95 | 1013.3 |
| 20260904015553 | 77 | 0 | 0.0 | 0.0 | 0.00 | 0.08 | 0.08 | 95 | 1013.4 |
| 20260904015055 | 77 | 0 | 0.0 | 0.0 | 0.00 | 0.08 | 0.08 | 95 | 1013.6 |
| 20260904014608 | 77 | 0 | 0.0 | 0.0 | 0.00 | 0.08 | 0.08 | 95 | 1013.7 |
| 20260904014053 | 77 | 0 | 0.0 | 0.0 | 0.00 | 0.08 | 0.08 | 95 | 1013.8 |
| 20260904013552 | 77 | 0 | 0.0 | 0.0 | 0.00 | 0.08 | 0.08 | 95 | 1013.8 |
| 20260904013122 | 77 | 0 | 0.0 | 0.0 | 0.00 | 0.08 | 0.08 | 94 | 1014.0 |
| 20260904012555 | 77 | 0 | 0.0 | 0.0 | 0.00 | 0.08 | 0.08 | 94 | 1014.1 |
| 20260904012053 | 77 | 0 | 0.0 | 0.0 | 0.00 | 0.08 | 0.08 | 94 | 1014.1 |
| 20260904011647 | 78 | 0 | 0.0 | 0.0 | 0.00 | 0.08 | 0.08 | 94 | 1014.0 |
| 20260904011052 | 78 | 0 | 0.0 | 0.0 | 0.00 | 0.08 | 0.08 | 94 | 1014.0 |
| 20260904010553 | 78 | 0 | 0.0 | 0.0 | 0.00 | 0.08 | 0.08 | 94 | 1014.0 |
| 20260904010106 | 78 | 0 | 0.0 | 0.0 | 0.00 | 0.08 | 0.08 | 94 | 1014.2 |
| 20260904005553 | 78 | 0 | 0.0 | 0.0 | 0.00 | 0.08 | 0.08 | 94 | 1014.3 |
| 20260904005052 | 78 | 0 | 0.0 | 0.0 | 0.00 | 0.08 | 0.08 | 94 | 1014.3 |
| 20260904004604 | 78 | 0 | 0.0 | 0.0 | 0.00 | 0.08 | 0.08 | 93 | 1014.4 |
| 20260904004050 | 78 | 0 | 0.0 | 0.0 | 0.00 | 0.08 | 0.08 | 93 | 1014.3 |
| 20260904003551 | 78 | 0 | 0.0 | 0.0 | 0.00 | 0.08 | 0.08 | 93 | 1014.3 |
| 20260904003101 | 78 | 0 | 0.0 | 0.0 | 0.00 | 0.08 | 0.08 | 93 | 1014.3 |
| 20260904002553 | 79 | 0 | 0.0 | 0.0 | 0.00 | 0.08 | 0.08 | 93 | 1014.2 |
| 20260904002054 | 79 | 0 | 0.0 | 1.0 | 0.00 | 0.08 | 0.08 | 93 | 1014.1 |
| 20260904001559 | 79 | 0 | 0.0 | 1.0 | 0.00 | 0.08 | 0.08 | 92 | 1013.9 |
| 20260904001053 | 79 | 319 | 0.0 | 1.0 | 0.00 | 0.08 | 0.08 | 92 | 1013.8 |
| 20260904000553 | 79 | 0 | 0.0 | 0.0 | 0.00 | 0.08 | 0.08 | 92 | 1013.8 |
| 20260904000105 | 79 | 0 | 0.0 | 0.0 | 0.00 | 0.08 | 0.08 | 91 | 1013.7 |
| 20260903235553 | 79 | 0 | 0.0 | 0.0 | 0.00 | 0.08 | 0.08 | 91 | 1013.6 |
| 20260903235053 | 79 | 0 | 0.0 | 0.0 | 0.00 | 0.08 | 0.08 | 91 | 1013.6 |
| 20260903234604 | 80 | 0 | 0.0 | 0.0 | 0.00 | 0.08 | 0.08 | 91 | 1013.5 |
| 20260903234052 | 80 | 0 | 0.0 | 0.0 | 0.00 | 0.08 | 0.08 | 91 | 1013.5 |
| 20260903233553 | 80 | 0 | 0.0 | 0.0 | 0.00 | 0.08 | 0.08 | 90 | 1013.5 |
| 20260903233100 | 80 | 0 | 0.0 | 0.0 | 0.00 | 0.08 | 0.08 | 90 | 1013.5 |
| 20260903232555 | 80 | 0 | 0.0 | 0.0 | 0.00 | 0.08 | 0.08 | 90 | 1013.6 |
| 20260903232056 | 81 | 0 | 0.0 | 0.0 | 0.00 | 0.08 | 0.08 | 90 | 1013.6 |
| 20260903231603 | 81 | 0 | 0.0 | 0.0 | 0.00 | 0.08 | 0.08 | 89 | 1013.5 |
| 20260903231053 | 81 | 0 | 0.0 | 1.0 | 0.00 | 0.08 | 0.08 | 89 | 1013.5 |
| 20260903230556 | 81 | 0 | 0.0 | 1.0 | 0.00 | 0.08 | 0.08 | 89 | 1013.4 |
| 20260903230103 | 82 | 319 | 0.0 | 0.0 | 0.00 | 0.08 | 0.08 | 88 | 1013.4 |
| 20260903225553 | 82 | 0 | 0.0 | 0.0 | 0.00 | 0.08 | 0.08 | 88 | 1013.6 |
| 20260903225053 | 82 | 0 | 0.0 | 0.0 | 0.00 | 0.08 | 0.08 | 88 | 1013.5 |
| 20260903224614 | 82 | 0 | 0.0 | 0.0 | 0.00 | 0.08 | 0.08 | 88 | 1013.4 |
| 20260903224053 | 82 | 0 | 0.0 | 0.0 | 0.00 | 0.08 | 0.08 | 86 | 1013.4 |
| 20260903223553 | 83 | 0 | 0.0 | 0.0 | 0.00 | 0.08 | 0.08 | 85 | 1013.4 |
| 20260903223100 | 83 | 319 | 0.0 | 0.0 | 0.00 | 0.08 | 0.08 | 85 | 1013.3 |
| 20260903222556 | 83 | 0 | 0.0 | 0.0 | 0.00 | 0.08 | 0.08 | 84 | 1013.3 |
| 20260903222055 | 83 | 0 | 0.0 | 0.0 | 0.00 | 0.08 | 0.08 | 84 | 1013.4 |
| 20260903221557 | 83 | 0 | 0.0 | 0.0 | 0.00 | 0.08 | 0.08 | 83 | 1013.6 |
| 20260903221052 | 84 | 0 | 0.0 | 0.0 | 0.00 | 0.08 | 0.08 | 82 | 1013.5 |
| 20260903220553 | 84 | 319 | 0.0 | 2.0 | 0.00 | 0.08 | 0.08 | 81 | 1013.4 |
| 20260903220105 | 84 | 0 | 0.0 | 2.0 | 0.00 | 0.08 | 0.08 | 79 | 1013.4 |
| 20260903215552 | 84 | 0 | 1.0 | 3.0 | 0.00 | 0.08 | 0.08 | 80 | 1013.3 |
| 20260903215051 | 84 | 0 | 0.0 | 3.0 | 0.00 | 0.08 | 0.08 | 79 | 1013.3 |
| 20260903214610 | 84 | 320 | 1.0 | 3.0 | 0.00 | 0.08 | 0.08 | 79 | 1013.3 |
| 20260903214057 | 84 | 320 | 0.0 | 2.0 | 0.00 | 0.08 | 0.08 | 80 | 1013.4 |
| 20260903213553 | 85 | 0 | 1.0 | 3.0 | 0.00 | 0.08 | 0.08 | 79 | 1013.5 |
| 20260903213101 | 84 | 316 | 1.0 | 3.0 | 0.00 | 0.08 | 0.08 | 79 | 1013.4 |
| 20260903212553 | 84 | 0 | 0.0 | 2.0 | 0.00 | 0.08 | 0.08 | 79 | 1013.5 |
| 20260903212053 | 84 | 301 | 1.0 | 3.0 | 0.00 | 0.08 | 0.08 | 79 | 1013.5 |
| 20260903211605 | 85 | 313 | 0.0 | 4.0 | 0.00 | 0.08 | 0.08 | 79 | 1013.4 |
| 20260903211052 | 85 | 317 | 1.0 | 4.0 | 0.00 | 0.08 | 0.08 | 77 | 1013.5 |
| 20260903210552 | 85 | 318 | 2.0 | 4.0 | 0.00 | 0.08 | 0.08 | 77 | 1013.7 |
| 20260903210142 | 85 | 281 | 1.0 | 2.0 | 0.00 | 0.08 | 0.08 | 78 | 1013.6 |
| 20260903205552 | 85 | 312 | 0.0 | 5.0 | 0.00 | 0.08 | 0.08 | 78 | 1013.6 |
| 20260903205054 | 85 | 310 | 2.0 | 5.0 | 0.00 | 0.08 | 0.08 | 79 | 1013.7 |
| 20260903204607 | 85 | 316 | 1.0 | 3.0 | 0.00 | 0.08 | 0.08 | 78 | 1013.6 |
| 20260903204054 | 85 | 305 | 1.0 | 3.0 | 0.00 | 0.08 | 0.08 | 80 | 1013.7 |
| 20260903203555 | 85 | 309 | 1.0 | 3.0 | 0.00 | 0.08 | 0.08 | 79 | 1013.8 |
| 20260903203100 | 85 | 276 | 1.0 | 5.0 | 0.00 | 0.08 | 0.08 | 80 | 1013.8 |
| 20260903202552 | 85 | 313 | 2.0 | 5.0 | 0.00 | 0.08 | 0.08 | 79 | 1013.8 |
| 20260903202052 | 85 | 265 | 1.0 | 3.0 | 0.00 | 0.08 | 0.08 | 80 | 1013.9 |
| 20260903201559 | 85 | 319 | 1.0 | 3.0 | 0.00 | 0.08 | 0.08 | 79 | 1013.8 |
| 20260903201054 | 84 | 273 | 1.0 | 3.0 | 0.00 | 0.08 | 0.08 | 79 | 1014.1 |
| 20260903200554 | 84 | 318 | 1.0 | 7.0 | 0.00 | 0.08 | 0.08 | 79 | 1014.0 |
| 20260903200117 | 84 | 210 | 2.0 | 7.0 | 0.00 | 0.08 | 0.08 | 80 | 1014.1 |
| 20260903195554 | 84 | 320 | 1.0 | 4.0 | 0.00 | 0.14 | 0.08 | 83 | 1014.1 |
| 20260903195052 | 84 | 314 | 2.0 | 4.0 | 0.00 | 0.14 | 0.08 | 83 | 1014.2 |
| 20260903194609 | 84 | 320 | 1.0 | 3.0 | 0.00 | 0.14 | 0.08 | 83 | 1014.1 |
| 20260903194055 | 84 | 321 | 1.0 | 3.0 | 0.00 | 0.14 | 0.08 | 84 | 1014.2 |
| 20260903193553 | 84 | 0 | 0.0 | 4.0 | 0.00 | 0.14 | 0.08 | 86 | 1014.3 |
| 20260903193102 | 84 | 238 | 0.0 | 4.0 | 0.00 | 0.14 | 0.08 | 85 | 1014.3 |
| 20260903192554 | 84 | 311 | 2.0 | 4.0 | 0.00 | 0.14 | 0.08 | 84 | 1014.4 |
| 20260903192054 | 83 | 313 | 1.0 | 2.0 | 0.00 | 0.14 | 0.08 | 86 | 1014.4 |
| 20260903191606 | 83 | 309 | 0.0 | 7.0 | 0.00 | 0.14 | 0.08 | 88 | 1014.5 |
| 20260903191051 | 83 | 0 | 0.0 | 7.0 | 0.00 | 0.14 | 0.08 | 88 | 1014.6 |
| 20260903190552 | 83 | 296 | 2.0 | 7.0 | 0.00 | 0.14 | 0.08 | 87 | 1014.8 |
| 20260903190058 | 83 | 312 | 1.0 | 6.0 | 0.00 | 0.14 | 0.08 | 87 | 1014.9 |
| 20260903185554 | 83 | 313 | 2.0 | 6.0 | 0.00 | 0.23 | 0.08 | 87 | 1015.0 |
| 20260903185055 | 83 | 310 | 3.0 | 6.0 | 0.00 | 0.23 | 0.08 | 87 | 1015.1 |
| 20260903184559 | 83 | 309 | 0.0 | 5.0 | 0.00 | 0.23 | 0.08 | 88 | 1014.9 |
| 20260903184055 | 83 | 321 | 1.0 | 5.0 | 0.00 | 0.23 | 0.08 | 89 | 1014.9 |
| 20260903183554 | 82 | 323 | 1.0 | 5.0 | 0.00 | 0.23 | 0.08 | 89 | 1015.0 |
| 20260903183108 | 82 | 326 | 1.0 | 5.0 | 0.00 | 0.23 | 0.08 | 89 | 1015.1 |
| 20260903182556 | 82 | 0 | 1.0 | 4.0 | 0.00 | 0.23 | 0.08 | 89 | 1015.1 |
| 20260903182054 | 82 | 323 | 1.0 | 4.0 | 0.00 | 0.23 | 0.08 | 90 | 1014.9 |
| 20260903181601 | 82 | 319 | 1.0 | 4.0 | 0.00 | 0.23 | 0.08 | 90 | 1014.9 |
| 20260903181054 | 82 | 330 | 1.0 | 3.0 | 0.00 | 0.23 | 0.08 | 90 | 1014.8 |
| 20260903180556 | 81 | 317 | 2.0 | 3.0 | 0.00 | 0.23 | 0.08 | 91 | 1014.7 |
| 20260903175554 | 80 | 278 | 0.0 | 1.0 | 0.00 | 0.23 | 0.08 | 92 | 1014.9 |
| 20260903175054 | 80 | 0 | 0.0 | 1.0 | 0.00 | 0.23 | 0.08 | 92 | 1015.1 |
| 20260903174601 | 80 | 0 | 0.0 | 2.0 | 0.00 | 0.23 | 0.08 | 91 | 1015.1 |
| 20260903174055 | 80 | 278 | 0.0 | 2.0 | 0.00 | 0.23 | 0.08 | 91 | 1015.2 |
| 20260903173555 | 80 | 0 | 0.0 | 1.0 | 0.00 | 0.23 | 0.08 | 92 | 1015.5 |
| 20260903173109 | 80 | 0 | 0.0 | 1.0 | 0.00 | 0.23 | 0.08 | 92 | 1015.5 |
| 20260903172553 | 80 | 0 | 0.0 | 1.0 | 0.00 | 0.23 | 0.08 | 92 | 1015.5 |
| 20260903172054 | 80 | 319 | 0.0 | 2.0 | 0.00 | 0.23 | 0.08 | 92 | 1015.7 |
| 20260903171613 | 80 | 0 | 0.0 | 2.0 | 0.00 | 0.23 | 0.08 | 92 | 1015.8 |
| 20260903171053 | 80 | 320 | 0.0 | 2.0 | 0.00 | 0.23 | 0.08 | 92 | 1016.0 |
| 20260903170556 | 80 | 320 | 0.0 | 4.0 | 0.00 | 0.23 | 0.08 | 91 | 1016.0 |
| 20260903170059 | 80 | 320 | 1.0 | 5.0 | 0.00 | 0.23 | 0.08 | 91 | 1016.0 |
| 20260903165555 | 81 | 290 | 2.0 | 5.0 | 0.00 | 0.23 | 0.08 | 91 | 1016.2 |
| 20260903165058 | 81 | 323 | 1.0 | 5.0 | 0.00 | 0.23 | 0.08 | 91 | 1016.2 |
| 20260903164603 | 81 | 314 | 2.0 | 5.0 | 0.00 | 0.23 | 0.08 | 91 | 1016.2 |
| 20260903164056 | 81 | 331 | 1.0 | 4.0 | 0.00 | 0.23 | 0.08 | 91 | 1016.3 |
| 20260903163558 | 81 | 307 | 1.0 | 5.0 | 0.00 | 0.23 | 0.08 | 91 | 1016.4 |
| 20260903163107 | 81 | 315 | 1.0 | 5.0 | 0.00 | 0.23 | 0.08 | 91 | 1016.5 |
| 20260903162554 | 81 | 316 | 1.0 | 5.0 | 0.00 | 0.23 | 0.08 | 91 | 1016.5 |
| 20260903162056 | 81 | 296 | 1.0 | 5.0 | 0.00 | 0.23 | 0.08 | 91 | 1016.3 |
| 20260903161600 | 81 | 307 | 0.0 | 3.0 | 0.00 | 0.23 | 0.08 | 92 | 1016.4 |
| 20260903161056 | 80 | 306 | 0.0 | 3.0 | 0.00 | 0.23 | 0.08 | 92 | 1016.4 |
| 20260903160556 | 80 | 318 | 1.0 | 3.0 | 0.00 | 0.23 | 0.08 | 92 | 1016.4 |
| 20260903160104 | 80 | 0 | 0.0 | 2.0 | 0.00 | 0.23 | 0.08 | 92 | 1016.2 |
| 20260903155554 | 80 | 0 | 0.0 | 4.0 | 0.00 | 0.23 | 0.08 | 93 | 1016.3 |
| 20260903155057 | 80 | 0 | 1.0 | 4.0 | 0.00 | 0.23 | 0.08 | 93 | 1016.3 |
| 20260903154607 | 80 | 305 | 0.0 | 2.0 | 0.00 | 0.23 | 0.08 | 93 | 1016.2 |
| 20260903154053 | 80 | 0 | 0.0 | 2.0 | 0.00 | 0.23 | 0.08 | 93 | 1016.1 |
| 20260903153555 | 80 | 350 | 0.0 | 2.0 | 0.00 | 0.23 | 0.08 | 93 | 1016.2 |
| 20260903153109 | 80 | 326 | 0.0 | 2.0 | 0.00 | 0.23 | 0.08 | 93 | 1016.1 |
| 20260903152554 | 80 | 0 | 0.0 | 3.0 | 0.00 | 0.23 | 0.08 | 94 | 1016.1 |
| 20260903152054 | 80 | 313 | 0.0 | 3.0 | 0.00 | 0.23 | 0.08 | 94 | 1016.1 |
| 20260903151611 | 80 | 0 | 0.0 | 3.0 | 0.00 | 0.23 | 0.08 | 95 | 1015.8 |
| 20260903151054 | 79 | 162 | 1.0 | 3.0 | 0.00 | 0.23 | 0.08 | 96 | 1015.9 |
| 20260903150556 | 79 | 323 | 0.0 | 2.0 | 0.00 | 0.23 | 0.08 | 96 | 1015.9 |
| 20260903150107 | 78 | 166 | 1.0 | 2.0 | 0.00 | 0.23 | 0.08 | 97 | 1016.0 |
| 20260903145552 | 78 | 164 | 0.0 | 2.0 | 0.00 | 0.23 | 0.08 | 97 | 1015.8 |
| 20260903145053 | 77 | 172 | 0.0 | 2.0 | 0.00 | 0.23 | 0.08 | 97 | 1015.7 |
| 20260903144558 | 77 | 0 | 0.0 | 2.0 | 0.00 | 0.23 | 0.08 | 97 | 1016.0 |